カタログに戻る

FENGYUN 1C DEB

運用中SSO
NORAD 30330·DEBRIS·🇨🇳 China

打ち上げ May 10, 1999 から Taiyuan Satellite Launch Center

Loading…

次のパス (今後24時間)

TLE

最新Source: Space-Track

元期: Sep 14, 2026, 10:39 UTC

1 30330U 99025AAR 26257.44428374  .00000804  00000-0  67770-3 0  9994
2 30330  98.9043 239.6628 0185707 161.5405 350.2811 13.82896391984674

AllMySatでFENGYUN 1C DEBをリアルタイム追跡

Download on the App Store